Regional Weather Roundup
Issued by NWS

Home | Current Version | Previous Version | Graphics & Text | Print | Product List | Glossary On
Versions: 1 2 3 4 5 6 7 8 9 10 11 12 13 14 15 16 17 18 19 20 21 22 23 24 25 26 27 28 29 30 31 32 33 34 35 36 37 38 39 40 41 42 43 44 45 46 47 48 49 50
000
ASUS43 KTOP 230708
RWRKS

WEATHER ROUNDUP FOR KANSAS
NATIONAL WEATHER SERVICE GOODLAND KS
200 AM CDT MON OCT 23 2017

NOTE:  "FAIR" INDICATES FEW OR NO CLOUDS BELOW 12,000 FEET WITH NO
SIGNIFICANT WEATHER AND/OR OBSTRUCTIONS TO VISIBILITY.

KSZ001>006-013>018-027>032-041>047-230800-
NORTHWEST KANSAS

CITY           SKY/WX    TMP DP  RH WIND       PRES   REMARKS
GOODLAND       CLEAR     46  27  47 W6        30.06S
HAYS           CLEAR     48  30  49 W5        30.00F
HILL CITY      CLEAR     49  30  48 W7        30.00F
RUSSELL        CLEAR     48  31  51 SW15      29.97F
$$

KSZ061>065-074>080-084>089-230800-
SOUTHWEST KANSAS

CITY           SKY/WX    TMP DP  RH WIND       PRES   REMARKS
DODGE CITY     CLEAR     50  30  46 SW10      30.04F
ELKHART          N/A     52  33  48 SW9         N/A
GARDEN CITY    CLEAR     43  30  60 W5        30.04F
GREAT BEND     CLEAR     43  32  65 S8        30.02S
LIBERAL        CLEAR     42  34  73 S5        30.06F
PRATT          CLEAR     44  33  65 SW7       30.03F
$$

KSZ066>073-081>083-090>101-230800-
SOUTHEAST KANSAS

CITY           SKY/WX    TMP DP  RH WIND       PRES   REMARKS
CHANUTE        CLEAR     46  40  79 S8        30.05F
COFFEYVILLE    CLEAR     44  43  96 SE3       30.06F
HUTCHINSON     CLEAR     49  41  74 S9        30.02F
MEDICINE LODGE   N/A     49  39  68 SE3       30.04F
NEWTON         CLEAR     51  40  65 S12       30.03F
PARSONS        CLEAR     42  40  92 CALM      30.08F
WICHITA INTL   PTCLDY    46  42  86 S8        30.03F
WICHITA JABRA  CLEAR     53  41  63 S13       30.03F
WICHITA MCCONL CLEAR     47  40  75 SW10      30.03F
WINFIELD       CLEAR     48  42  80 S5        30.07F
$$

KSZ007>012-019>026-033>040-048>060-102>105-230800-
NORTHEAST KANSAS

CITY           SKY/WX    TMP DP  RH WIND       PRES   REMARKS
CONCORDIA      CLEAR     52  31  44 S16       29.96F
EMPORIA        CLEAR     44  38  79 S9        30.02F
LAWRENCE       CLEAR     43  41  93 E6        30.02F
MANHATTAN      CLEAR     47  40  76 S8        29.99F
MARYSVILLE     PTCLDY    50  34  53 S8        29.97S
OLATHE IND     CLEAR     43  40  89 S5        30.03F
OLATHE EXE     CLEAR     46  40  79 S6        30.02F
SALINA         CLEAR     53  40  61 S12       30.00F
TOPEKA BILLARD CLEAR     49  39  68 S5        30.00F
TOPEKA FORBES  CLEAR     48  39  71 S8        30.00F
$$




USA.gov is the U.S. government's official web portal to all federal, state and local government web resources and services.